User: anonymous   Login
Location: Unspecified
(0.0000°N, 0.0000°E)
Time: 00:15:37
(UTC+01:00)
Language:

Milstar 3 - Orbit

View from above orbital plane
View from above orbital plane
View from above satellite
View from above satellite

Ground track
Ground track

The orbit data is extracted from the following two-line orbital elements,

1 25724U 99023A   18042.87445951 0.00000000  00000-0  00000-0 0    04
2 25724  28.2128  72.6089 2141851 179.6304 180.3691  9.37463034    06
Epoch (UTC): 11 February 2018 20:59:13
Eccentricity: 0.2141851
inclination: 28.2128°
perigee height: 1088 km
apogee height: 5158 km
right ascension of ascending node: 72.6089°
argument of perigee: 179.6304°
revolutions per day: 9.37463034
mean anomaly at epoch: 180.3691°
orbit number at epoch: 0

The dashed part of the orbit path shows where the satellite is in the earth's shadow,  

DLR